Regional Weather Roundup
Issued by NWS

Home | Current Version | Previous Version | Graphics & Text | Print | Product List | Glossary On
Versions: 1 2 3 4 5 6 7 8 9 10 11 12 13 14 15 16 17 18 19 20 21 22 23 24 25 26 27 28 29 30 31 32 33 34 35 36 37 38 39 40 41 42 43 44 45 46 47 48 49 50
000
ASUS43 KOAX 030602
RWRNE

WEATHER ROUNDUP FOR NEBRASKA
NATIONAL WEATHER SERVICE OMAHA NE
100 AM CDT FRI JUL 03 2015

NOTES: SATELLITE DATA IS BEING USED TO AUGMENT CLOUD COVER ABOVE
       12000 FEET.
       "FAIR" INDICATES FEW OR NO CLOUDS BELOW 12,000 FEET WITH NO
       SIGNIFICANT WEATHER AND/OR OBSTRUCTIONS TO VISIBILITY.

  * THESE STATIONS DO NOT REPORT WEATHER SUCH AS RAIN...SNOW OR FOG.

NEZ001>004-019>022-054>056-030700-
NEBRASKA PANHANDLE

CITY           SKY/WX    TMP DP  RH WIND       PRES   REMARKS
SCOTTSBLUFF      N/A     68  59  73 VRB3      30.14S
6HR MIN TEMP:  68; 6HR MAX TEMP:  83;

ALLIANCE       CLEAR     59  57  93 W5        30.12S
6HR MIN TEMP:  59; 6HR MAX TEMP:  79;

CHADRON        PTCLDY    63  61  93 SW3       30.10S
6HR MIN TEMP:  62; 6HR MAX TEMP:  79; 6HR PCP: TRACE;

KIMBALL          N/A    N/A N/A N/A MISG        N/A
SIDNEY         CLEAR     61  58  90 CALM      30.16R
6HR MIN TEMP:  61; 6HR MAX TEMP:  81;

$$

NEZ057>060-069>072-079>082-030700-
SOUTHWEST NEBRASKA

CITY           SKY/WX    TMP DP  RH WIND       PRES   REMARKS
NORTH PLATTE   CLEAR     62  58  86 SE3       30.06S
6HR MIN TEMP:  62; 6HR MAX TEMP:  82; 6HR PCP: TRACE;

IMPERIAL       CLEAR     63  58  83 NE3       30.09S
6HR MIN TEMP:  63; 6HR MAX TEMP:  85;

LEXINGTON      CLEAR     64  62  92 CALM      30.04S
MCCOOK         CLEAR     68  59  73 CALM      30.04S
6HR MIN TEMP:  66; 6HR MAX TEMP:  86;

$$

NEZ005>010-023>029-035>040-094-030700-
NORTH CENTRAL NEBRASKA

CITY           SKY/WX    TMP DP  RH WIND       PRES   REMARKS
VALENTINE      CLEAR     61  59  93 W5        30.05R
6HR MIN TEMP:  61; 6HR MAX TEMP:  78;

AINSWORTH      CLEAR     63  62  97 CALM      30.05R
BROKEN BOW     LGT RAIN  61  59  93 CALM      30.04S
6HR MIN TEMP:  61; 6HR MAX TEMP:  80; 6HR PCP: TRACE;

O`NEILL        CLOUDY    66  64  96 CALM      30.04R FOG
ORD            CLOUDY    64  61  90 E5        30.02R
6HR MIN TEMP:  63; 6HR MAX TEMP:  78; 6HR PCP: TRACE;

$$

NEZ041-046>049-061>064-073>077-083>087-030700-
SOUTH CENTRAL NEBRASKA

CITY           SKY/WX    TMP DP  RH WIND       PRES   REMARKS
GRAND ISLAND   CLOUDY    66  64  93 N6        30.01S
6HR MIN TEMP:  66; 6HR MAX TEMP:  74;

AURORA         CLOUDY    67  67 100 NE7       30.00S FOG
HASTINGS       CLEAR     65  63  93 N8        30.00S
6HR MIN TEMP:  65; 6HR MAX TEMP:  81;

KEARNEY *      CLEAR     63  59  88 N5        30.02S
$$

NEZ011>018-030>034-042>045-030700-
NORTHEAST NEBRASKA

CITY           SKY/WX    TMP DP  RH WIND       PRES   REMARKS
NORFOLK        CLOUDY    65  62  90 CALM      30.01S
6HR MIN TEMP:  64; 6HR MAX TEMP:  66; 6HR PCP: TRACE;

COLUMBUS *     CLOUDY    64  59  82 NE5       30.00S
FREMONT        CLOUDY    65  61  89 CALM      30.00S
TEKAMAH        PTCLDY    60  57  89 N3        30.00R
6HR MIN TEMP:  60; 6HR MAX TEMP:  71;

$$

NEZ050>053-065>068-078-088>093-030700-
SOUTHEAST NEBRASKA

CITY           SKY/WX    TMP DP  RH WIND       PRES   REMARKS
LINCOLN        CLOUDY    69  65  86 E7        29.98R
6HR MIN TEMP:  69; 6HR MAX TEMP:  72; 6HR PCP: TRACE;

OMAHA EPPLEY   CLOUDY    64  56  75 E5        29.99S
6HR MIN TEMP:  64; 6HR MAX TEMP:  71; 6HR PCP: TRACE;

FALLS CITY     CLOUDY    66  60  81 E10       29.95S
6HR MIN TEMP:  66; 6HR MAX TEMP:  70;

PLATTSMOUTH    CLOUDY    64  59  84 E5        29.99R
$$

NEZ044-045-051>053-067-030700-
OMAHA AREA

CITY           SKY/WX    TMP DP  RH WIND       PRES   REMARKS
OMAHA EPPLEY   CLOUDY    64  56  75 E5        29.99S
6HR MIN TEMP:  64; 6HR MAX TEMP:  71; 6HR PCP: TRACE;

FREMONT        CLOUDY    65  61  89 CALM      30.00S
MILLARD        PTCLDY    65  59  81 CALM      29.99R
OFFUTT AFB     MOCLDY    64  58  80 E3        29.98R
PLATTSMOUTH    CLOUDY    64  59  84 E5        29.99R
$$


USA.gov is the U.S. government's official web portal to all federal, state and local government web resources and services.